Location: Oregon Trail
(41.1872°N, 102.0741°W)
Time: 04:41:29
(UTC+00:00)

Cosmos 1825 - Pass Details

Date: 19 November 2019
Orbit: 505 x 508 km, 82.5° (Epoch: 14 December)

Event Time Altitude Azimuth Distance (km) Brightness Sun altitude
Rises 13:08:59 0° 229° (SW) 2,594 5.5 -6.3°
Reaches altitude 10° 13:11:58 10° 256° (WSW) 1,716 4.4 -5.8°
Maximum altitude 13:14:00 14° 289° (WNW) 1,481 3.9 -5.5°
Drops below altitude 10° 13:16:04 10° 322° (NW) 1,724 4.3 -5.1°
Sets 13:19:04 0° 348° (NNW) 2,616 5.4 -4.6°
